SCP
0 0 0 1 1 0 0 0 0 0 0 0 0 0 0 0 0 0 0 0 0 0 0 0 0 0 0 0 0 0 0 0 0 0 0 0 0 0 0 0 0 0 0 0 0 0 0 0 0
0 0 0 0 0 0 0 0 0 0 0 0 0 0 0 0 0 0 0 0 0 0 0 0 0 0 0 0 0 0 0 0 0 0 0 0 0 0 0 0 0 0 0 0 0 0 0 0 0
0 0 0 0 0 0 0 0 0 0 0 0 0 0 0 0 0 0 0 0 0 0 0 0 0 0 0 0 0 0 0 0 0 0 0 0 0 0 0 0 0 0 0 0 0 0 0 0 0
0 0 0 0 0 0 0 0 0 0 0 0 0 0 0 0 0 0 0 0 0 0 0 0 0 0 0 0 0 0 0 0 0 0 0 0 0 0 0 0 0 0 0 0 0 0 0 0 -0
0 0 0 0 0 0 0 0 0 0 0 0 0 0 0 0 0 0 0 0 0 0 0 0 0 0 0 0 0 0 0 0 0 0 0 0 0 0 0 0 0 0 0 0 0 0 0 0 -0
0 0 0 0 0 0 0 0 0 0 0 0 0 0 0 0 0 0 0 0 0 0 0 0 0 0 0 0 0 0 0 0 0 0 0 0 0 0 0 0 0 0 0 0 0 0 0 0 -0
0 0 0 0 0 0 0 0 0 0 0 0 0 0 0 0 0 0 0 0 0 1 0 0 0 0 0 0 0 0 0 0 0 0 0 0 0 0 0 0 0 0 0 0 0 0 0 -0 -0
0 0 0 0 0 0 0 0 0 0 0 0 0 0 1 1 1 0 0 0 1 1 1 0 0 0 0 0 0 0 0 0 0 0 0 0 0 0 0 0 0 0 0 0 0 0 0 -0 -0
0 0 0 0 0 0 0 0 0 0 0 0 0 0 1 1 1 1 1 1 1 1 1 0 0 0 0 0 0 0 0 0 0 0 0 0 0 0 0 0 0 0 0 0 0 0 0 0 0
0 0 0 0 0 0 0 0 0 0 0 0 0 1 1 1 1 1 1 1 1 1 1 1 1 0 0 0 0 0 0 0 0 0 0 -0 -0 0 0 0 0 0 0 0 0 0 0 0 0
0 0 0 0 0 0 0 0 0 0 0 0 1 1 1 1 1 1 1 1 2 1 1 1 1 1 1 0 0 0 0 0 0 0 0 0 0 0 0 0 0 0 0 0 0 0 0 0 0
0 0 0 0 0 0 0 0 0 0 0 0 1 1 1 1 1 1 1 2 2 2 2 2 1 1 1 1 1 0 0 0 0 0 0 0 0 0 0 0 0 0 0 0 0 0 0 0 0
0 0 0 0 0 0 0 0 0 0 0 0 1 1 1 1 1 1 2 2 2 2 2 2 2 2 1 1 1 1 0 0 0 0 0 0 0 0 0 0 0 0 0 0 0 0 0 0 0
0 0 0 0 0 0 0 0 0 0 0 0 0 1 1 1 1 2 2 3 3 3 2 2 2 2 2 1 1 1 1 0 0 0 0 0 0 0 0 0 0 0 0 0 0 0 0 0 0
0 0 0 0 0 0 0 0 0 0 0 0 0 1 1 1 2 2 3 3 3 3 3 2 2 2 2 1 1 1 1 0 0 0 0 0 0 0 0 0 0 0 0 0 0 0 0 0 0
0 0 0 0 0 0 0 0 0 0 0 0 0 1 1 2 2 2 3 3 3 3 3 2 2 2 2 1 1 1 1 1 1 1 1 0 0 0 0 0 0 0 0 0 0 0 0 0 0
0 0 0 0 0 0 0 0 0 0 0 0 0 1 1 2 2 2 3 3 3 3 2 2 2 2 2 1 1 1 1 1 1 1 1 1 0 0 0 0 0 0 0 0 0 0 0 0 0
0 0 0 0 0 0 0 0 0 0 0 0 0 1 1 2 2 2 3 3 3 3 2 2 2 2 1 1 1 1 1 1 1 1 1 1 0 0 0 0 0 0 0 0 0 0 0 0 0
0 0 0 0 0 0 0 0 0 0 0 0 1 1 1 2 2 2 2 2 2 2 2 2 2 2 1 1 1 1 1 1 1 0 0 0 0 0 0 0 0 0 0 0 0 0 0 0 0
0 0 0 0 0 0 0 0 0 0 0 0 1 1 1 2 2 2 2 2 2 2 2 2 2 2 1 1 1 1 1 1 0 0 0 0 0 0 0 0 0 0 0 0 0 0 0 0 0
0 0 0 0 0 0 0 0 0 0 0 0 0 1 1 2 2 2 2 2 2 2 2 2 1 1 1 1 1 1 1 1 0 0 0 0 0 0 0 0 0 0 0 0 0 0 0 0 0
0 0 0 0 0 0 0 0 0 0 0 0 0 1 1 1 2 2 2 2 2 1 1 1 1 1 1 1 1 1 1 1 0 0 1 0 0 0 0 0 0 0 0 0 0 0 0 0 0
0 0 0 0 0 0 0 0 0 0 0 0 0 1 1 1 2 2 2 2 1 1 1 1 1 1 1 1 1 1 1 1 0 0 0 0 0 0 0 0 0 0 0 0 0 0 0 0 0
0 0 0 0 0 0 0 0 0 0 0 0 0 1 1 1 2 2 2 1 1 1 1 1 1 1 1 1 1 1 1 1 0 0 0 0 0 0 0 0 0 0 0 0 0 0 0 0 0
0 0 0 0 0 0 0 0 0 0 0 0 0 1 1 1 1 2 2 1 1 1 1 1 1 1 1 1 1 1 0 0 0 0 0 0 0 0 0 0 1 1 0 1 1 1 0 0 0
0 0 0 0 0 0 0 0 0 0 0 0 1 1 1 1 1 1 1 1 1 1 1 1 1 1 1 1 0 0 0 0 0 0 0 0 0 0 1 1 1 1 1 1 1 1 0 0 0
0 0 0 0 0 0 0 0 0 0 0 0 1 1 1 1 1 1 1 1 1 1 1 1 1 1 1 0 0 0 0 0 0 0 0 0 0 0 1 1 1 1 1 1 1 1 1 1 1
0 0 0 0 0 0 0 0 0 0 0 0 0 1 1 1 1 1 1 1 1 1 1 1 1 1 1 0 0 0 0 0 0 0 0 0 0 1 1 1 1 1 1 1 1 1 1 1 1
0 0 0 0 0 0 0 0 0 0 0 0 0 1 1 1 1 1 1 1 1 1 1 1 1 1 1 0 0 0 0 0 0 0 0 0 1 1 1 1 1 1 1 1 1 1 1 1 1
0 0 0 0 0 0 0 0 0 0 0 0 1 1 1 1 1 1 1 1 1 1 1 1 1 1 1 0 0 0 0 0 0 0 0 0 1 1 0 1 1 1 1 1 1 1 0 0 1
Wind_Speed
10 12 10 7 5 1 8 14 14 14 13 12 12 14 18 15 12 12 16 21 23 20 17 16 14 14 14 14 14 14 14 14 13 13 12 12 12 13 13 13 14 14 14 14 14 14 13 13 13
10 13 9 5 2 3 9 12 13 12 11 10 13 17 18 17 16 16 18 21 22 20 16 15 16 15 15 15 15 14 14 13 13 12 12 12 12 12 13 14 14 14 14 14 14 14 13 13 12
12 15 7 4 1 4 9 11 11 11 10 10 14 16 15 13 14 15 18 22 21 18 16 16 16 16 15 15 14 14 13 13 13 12 12 12 12 12 13 13 14 14 14 14 14 14 13 12 10
9 8 5 4 0 6 9 9 9 10 10 10 12 12 13 11 14 18 20 21 21 19 17 17 17 16 15 15 14 14 13 13 12 12 12 12 12 12 12 13 13 14 14 14 13 13 12 11 9
9 5 4 3 1 8 8 8 8 9 9 11 14 16 14 13 18 20 19 20 19 19 18 17 17 16 15 14 14 13 13 13 12 12 12 12 12 12 12 13 13 13 13 13 13 12 11 10 8
6 4 5 2 1 7 7 6 7 8 8 9 14 15 11 13 16 17 18 18 19 20 18 16 17 16 15 14 14 13 13 12 12 12 11 12 12 12 12 12 12 12 12 12 12 11 10 9 6
10 8 8 4 1 6 6 4 6 7 7 7 14 14 8 13 15 16 16 16 18 20 18 15 15 14 15 14 14 13 13 12 12 12 12 12 12 12 12 11 11 12 11 11 11 10 9 8 5
9 9 9 4 2 5 5 3 6 7 6 5 11 12 11 15 16 16 15 15 17 18 17 15 15 13 12 12 13 13 13 12 12 12 11 12 12 12 12 11 10 11 10 10 10 9 8 6 4
11 8 7 4 2 4 5 3 4 7 6 4 10 14 17 19 18 16 14 14 14 15 15 15 15 14 12 12 13 12 12 11 11 10 11 10 8 9 8 12 11 10 9 9 8 8 7 6 4
8 8 6 4 5 4 4 2 1 5 5 6 11 16 20 19 18 17 16 15 15 14 14 13 13 12 11 11 10 8 8 8 7 7 8 5 3 5 9 11 11 10 9 8 8 7 7 5 4
10 10 9 6 4 5 3 2 1 3 5 5 10 16 19 19 17 15 14 14 13 13 11 12 11 9 9 8 8 6 5 6 6 7 6 4 4 5 7 5 6 6 7 6 6 6 5 4 2
11 10 8 6 5 6 6 4 3 1 5 9 13 16 18 17 16 15 14 13 12 11 11 11 11 8 7 8 6 6 5 5 4 5 6 4 2 3 4 3 5 4 3 3 4 3 4 3 3
10 11 10 8 7 7 7 6 5 1 5 9 12 15 16 16 15 13 12 12 12 10 9 10 9 7 6 5 4 5 5 5 5 4 3 4 3 3 3 2 2 3 3 3 2 1 3 2 2
10 10 10 10 10 8 8 8 6 3 5 8 9 12 14 14 15 13 12 11 12 11 9 10 10 8 6 5 3 4 5 4 5 5 5 4 3 4 3 3 1 1 2 2 2 2 2 1 1
10 12 13 13 12 9 7 7 5 3 4 7 9 11 12 13 13 13 13 11 12 11 10 10 10 9 8 7 5 4 5 6 4 4 5 4 3 5 3 2 2 1 2 3 2 2 2 2 2
11 13 15 13 9 6 6 6 3 4 4 5 7 10 11 10 12 12 12 10 11 11 10 10 10 10 9 7 4 3 3 4 4 4 5 4 4 5 3 3 2 2 2 2 2 1 1 1 2
14 15 15 7 7 5 7 5 4 6 6 6 6 9 11 11 11 11 12 12 11 10 10 9 8 10 9 7 5 3 2 3 3 4 5 5 5 5 3 2 2 2 2 2 2 2 1 2 2
12 11 9 5 7 5 7 6 4 6 7 6 6 7 10 11 11 11 11 11 10 10 9 9 8 9 8 6 4 3 3 3 3 3 4 5 4 4 3 3 3 2 1 1 2 3 1 1 1
15 13 11 4 3 2 8 8 5 6 6 6 8 9 9 11 12 11 11 11 11 10 10 9 9 9 8 6 6 5 4 4 3 4 5 6 5 5 3 3 4 2 1 2 3 2 2 1 1
13 13 11 7 3 4 9 10 8 5 4 5 7 9 10 11 13 11 10 10 10 10 10 10 9 10 9 6 5 4 4 4 4 3 5 6 5 5 5 3 3 3 2 2 2 2 1 2 2
12 12 12 10 5 7 10 12 9 6 5 6 7 8 10 12 14 13 12 11 10 10 10 9 9 9 9 8 5 4 4 3 4 4 4 5 6 5 4 5 4 4 4 3 3 3 3 2 1
12 12 11 11 10 9 11 9 6 7 7 7 8 8 10 11 14 14 12 11 11 10 10 9 9 8 8 8 7 8 6 5 5 5 4 5 5 6 5 5 4 3 3 4 5 4 3 2 2
13 10 9 10 11 12 13 11 4 7 7 8 9 8 9 10 13 14 13 11 10 10 9 8 8 8 8 8 7 7 6 5 3 4 5 6 5 6 6 6 5 5 3 4 4 3 2 2 2
11 10 8 10 11 14 14 12 5 5 7 7 7 8 9 10 11 12 12 11 9 9 9 8 8 8 8 8 8 7 7 6 6 6 6 5 4 5 6 6 5 5 3 3 3 3 4 2 2
12 10 8 9 10 11 9 9 3 7 6 6 8 9 10 11 11 12 12 11 10 10 9 9 9 8 8 8 8 7 7 6 7 6 6 6 5 5 6 6 5 4 4 4 4 3 3 4 3
14 15 12 9 7 5 6 6 3 7 8 7 9 9 10 11 11 11 11 10 10 9 9 9 9 8 8 8 7 6 6 5 5 6 5 6 5 5 6 6 6 5 5 5 4 3 4 3 3
16 16 17 16 15 9 6 5 5 6 9 9 9 10 10 11 12 11 11 10 9 9 9 9 9 7 7 7 6 6 6 6 5 5 5 4 4 4 7 7 6 6 5 4 4 3 3 3 3
18 15 11 12 11 12 7 8 7 9 8 10 10 10 11 11 12 12 11 10 9 8 8 8 8 7 6 6 6 6 6 6 5 5 5 4 4 4 5 6 6 5 5 4 4 3 3 3 3
16 16 13 9 11 11 8 1 2 8 8 8 10 11 12 11 11 11 10 9 9 8 8 8 8 7 6 6 6 5 5 6 6 5 5 4 4 4 4 4 5 5 5 5 4 4 3 4 3
16 17 15 10 10 10 9 2 6 8 7 8 9 11 11 11 11 11 11 9 9 8 8 7 7 7 6 6 6 5 5 5 5 5 5 5 5 4 4 4 4 5 5 5 5 5 4 4 4
Wind_Direction
248 248 239 255 257 261 67 72 69 66 65 61 57 63 64 54 68 91 116 118 118 121 125 127 124 125 125 123 121 119 116 113 109 105 103 100 98 98 97 98 99 98 98 98 98 97 97 96 97
268 264 250 249 281 62 75 77 73 70 70 69 67 70 73 69 83 105 116 118 120 125 132 126 126 125 125 124 123 121 119 116 112 109 106 104 101 100 99 99 99 99 99 99 100 100 100 100 100
267 267 266 236 215 79 78 79 83 87 79 75 75 65 68 86 99 112 121 124 123 125 122 125 129 126 125 124 124 122 121 118 116 112 109 106 104 102 101 101 101 101 101 101 100 100 102 102 102
268 257 245 264 103 94 84 87 89 91 90 82 88 83 74 81 108 121 130 126 123 125 125 129 131 129 127 127 126 125 124 121 118 114 111 108 107 105 104 103 102 102 102 102 101 102 102 102 104
257 268 279 296 11 89 81 82 84 85 78 83 90 92 87 91 112 127 133 129 132 130 127 133 133 132 131 130 130 127 125 123 121 118 114 112 110 108 106 105 105 105 104 104 103 104 104 104 105
265 267 277 282 79 89 85 82 85 91 92 98 101 96 98 114 124 137 138 138 135 130 130 133 136 136 135 135 133 131 129 127 126 122 118 115 114 112 111 110 109 108 107 106 106 106 107 108 108
267 278 267 256 144 97 87 90 84 83 84 91 100 98 120 134 138 144 142 140 134 131 131 141 142 140 140 139 137 135 132 131 129 126 123 121 120 118 116 114 113 113 113 112 111 111 112 115 120
273 294 300 278 134 90 86 80 94 94 88 99 106 119 151 146 147 145 144 140 135 134 139 146 147 145 148 145 142 139 137 136 134 134 135 132 131 129 128 124 120 120 120 120 121 122 124 132 146
269 274 290 326 37 89 76 49 99 106 107 79 81 122 147 147 150 148 149 145 141 139 143 152 148 152 154 151 145 146 145 144 144 147 149 151 152 143 147 123 130 130 131 133 136 138 142 153 177
253 273 295 358 8 33 69 357 35 104 93 85 95 117 137 148 154 158 159 155 149 144 151 150 148 155 157 148 144 154 156 155 167 158 166 183 152 140 130 131 141 145 147 151 159 162 171 190 185
255 269 302 324 354 341 333 303 329 112 123 144 134 137 147 155 161 166 164 160 150 149 151 146 147 154 155 138 156 162 154 161 173 163 173 167 145 141 133 148 150 160 169 179 165 184 206 205 201
256 276 288 301 322 304 302 307 315 56 128 147 143 150 154 163 169 171 166 161 150 153 152 147 147 155 149 147 159 156 150 160 162 162 178 156 159 145 146 157 163 172 184 173 174 194 193 188 161
256 268 274 278 276 275 286 285 284 154 127 125 136 149 158 168 170 170 163 157 150 156 152 141 143 146 142 140 159 157 147 163 157 159 177 157 161 147 141 140 161 178 163 160 171 169 140 144 146
279 280 278 271 263 262 262 262 248 201 145 132 144 155 166 170 170 166 160 159 157 160 154 147 150 154 148 144 158 142 153 156 158 161 168 177 154 133 132 148 173 164 136 128 138 140 130 119 93
272 280 272 257 247 246 257 267 247 189 170 157 163 162 164 163 164 164 162 162 161 160 156 155 157 159 157 156 169 165 170 167 157 148 151 171 149 138 151 154 182 153 123 118 128 133 134 153 147
260 257 256 244 226 221 238 258 198 163 197 176 169 156 150 150 159 160 157 156 159 162 161 162 169 163 162 159 175 177 184 152 144 147 148 168 149 151 162 160 173 146 133 150 138 167 163 142 127
244 243 251 220 196 214 238 239 190 181 194 183 166 153 148 151 158 155 156 158 161 162 161 168 167 160 163 162 172 180 165 141 141 146 152 164 166 164 174 145 128 162 153 160 179 144 148 138 145
261 253 252 223 167 203 255 252 207 180 201 173 154 152 150 157 157 153 153 153 156 158 159 167 165 158 156 158 165 175 167 154 148 149 157 158 170 174 181 153 161 190 166 139 95 115 97 131 191
282 301 305 300 124 236 268 270 234 199 197 166 161 159 159 158 148 145 154 157 159 159 162 169 170 162 159 163 173 180 180 171 166 169 166 167 178 179 201 154 157 180 168 156 151 151 166 205 184
267 278 278 269 200 239 274 271 252 201 185 167 168 159 160 151 143 150 156 159 163 166 168 172 173 169 171 171 171 180 178 176 174 174 169 178 177 181 191 168 176 171 165 153 137 124 151 228 181
255 261 271 283 264 230 255 259 240 192 178 166 176 165 162 157 156 157 162 165 168 170 173 176 174 172 174 169 171 180 168 170 171 175 178 183 182 191 190 173 191 173 178 170 182 178 194 222 195
247 250 263 277 279 270 259 260 207 176 179 184 185 173 165 162 156 158 163 169 170 170 173 169 168 170 175 173 181 180 182 186 184 176 178 179 189 188 187 183 184 188 194 163 194 192 192 202 216
246 262 259 263 267 271 272 268 207 171 180 193 181 166 154 154 153 157 162 165 164 167 166 165 165 171 175 182 188 185 191 189 181 176 177 180 189 195 193 186 187 193 192 178 196 163 199 214 223
242 250 256 259 262 255 255 262 233 175 180 181 150 142 140 143 147 150 152 153 159 163 162 163 165 172 176 183 188 190 195 191 187 190 185 188 187 193 192 188 185 190 190 177 174 169 199 232 264
222 229 231 230 230 243 245 249 215 156 158 156 144 143 141 144 142 145 151 155 161 164 162 162 165 173 179 185 191 194 198 192 197 197 193 194 188 188 191 189 182 190 188 181 178 182 205 206 223
211 226 237 247 243 246 240 233 200 137 124 125 132 134 137 138 138 143 148 152 159 161 159 160 166 174 180 184 189 192 193 196 201 204 201 198 192 183 181 178 182 193 192 192 178 185 201 198 206
219 221 244 261 275 270 208 184 152 149 135 135 138 141 141 135 137 142 147 151 155 155 155 158 162 166 173 178 182 190 197 200 199 196 205 198 189 185 173 173 182 191 191 187 174 204 206 179 195
241 225 231 251 271 278 247 201 181 165 154 152 153 149 142 139 142 140 143 145 145 147 147 153 157 162 168 175 185 186 191 190 193 198 200 193 189 180 166 171 181 184 182 184 186 206 194 180 198
221 238 242 249 254 263 269 286 109 143 166 169 155 146 142 142 139 136 137 137 140 140 144 149 152 159 166 172 179 179 183 186 190 193 190 179 169 167 173 181 183 181 183 186 194 217 194 189 206
222 225 233 239 251 265 268 218 135 155 176 160 141 134 136 134 130 132 134 134 137 140 144 149 154 161 165 165 168 175 180 178 182 185 178 166 165 171 177 185 190 189 186 185 193 213 205 192 206